Погода в Тамдыбулаке

Погода в Тамдыбулаке : погода сейчас, прогноз погоды и архив. Всё, что Вы хотите узнать о погоде в Тамдыбулаке!

Хотите узнать прогноз погоды в Тамдыбулаке? Тогда Вам сюда: Погода в Тамдыбулаке

Поиск расширенной информации на нашем сайте:

Другие новости

Новости СМИ2

Главная страница сайта

Новости сайта

03.07.2017

Напоминаем, что на нашем специализированном сайте Метеоцентр.Азия вы можете получить высокодетализированные автоматические прогнозы погоды по пунктам России, СНГ и мира в авиационном формате (включающие направление и скорость ветра, видимость, явления погоды, количество и форму облачности, нижнюю и верхнюю границу облачности).


Погода в Тамдыбулаке - сегодня

Время (UTC), дата Ветер
(°,м/с) 
Видим.   Явления Облачность Т
(°С)
Тd
(°С)
f(%) Тe
(°С)
Pmin
(гПа)
dP
(гПа)
Po
(мм)
O2
(г/м3)
Тmin Tmax R s Состояние
почвы
12 18.10.17 260 (З) 20000 м    8/0 средняя 
[Ac cuf]
+11.7 -1.7 39 +10  1023.1  0.6  746  288           
18 18.10.17 230 (ЮЗ) н/о  в посл. час дождь  10/0 средняя 
[As op]
+8.8 -0.9 51 +10  1025.5  1.5  747  292    +13.8     
21 18.10.17 260 (З) н/о    ясно 
+6.8 -2.2 53 +7  1026.2  0.4  748  294           
00 19.10.17 190 (Ю) н/о    ясно 
+7.2 -1.2 55 +7  1027.6  1.5  749  294           
03 19.10.17 260 (З) 20000 м    10/0 средняя 
[As op]
+7 -1.4 55 +6  1030.2  2.5  751  295         
06 19.10.17 270 (З) 20000 м    8/5 600 м средняя 
[Sc|Ac trans]
+9.4 +1.5 58 +9  1030.9  751  292  +6.7       
09 19.10.17 280 (З) 20000 м    4/4 600 м 
[Sc]
+11.6 +2.9 55 +11  1031  0.4  752  290           
12 19.10.17 290 (З) 20000 м    3/0 верхняя 
[Ci fib]
+12.6 +1.9 48 +12  1030.7  -0.2  752  289           
15 19.10.17 100 (В) н/о    ясно 
+9 -0.7 51 +10  1031.2  0.1  752  293    +13.6       
18 19.10.17 140 (ЮВ) н/о    ясно 
+7.2 -1.9 52 +7  1032  0.5  752  295    +13.6       
21 19.10.17 130 (ЮВ) н/о    ясно 
+5 -3.3 55 +5  1033  0.7  753  298           
00 20.10.17 090 (В) н/о    ясно 
+3.2 -4.7 56 +3    -1.4             
03 20.10.17 100 (В) 13  20000 м    ясно 
+6.6 -2.5 52 +3  1029.1  -2.2  750  295  +3         
06 20.10.17 080 (В) 20000 м    ясно 
+11.9 +1.3 48 +12  1025.3  -3.1  748  288  +3         
09 20.10.17 110 (В) 20000 м    ясно 
+18.8 +5 40 +20  1021.6  -2.9  745  280           
12 20.10.17 100 (В) 20000 м    ясно 
+20.8 +5 36 +21  1020.3  -1.1  745  278           
15 20.10.17 110 (В) н/о    ясно 
+16.6 +2.1 38 +17  1020  -0.7  744  282    +21.9      мокрая 
18 20.10.17 060 (СВ) н/о    ясно 
+11.4 -1.9 39 +12  1019.7  -0.9  743  288    +21.9       
21 20.10.17 280 (З) н/о    ясно 
+9.4 -3 42 +10  1019.1  -0.7  743  290           
00 21.10.17 160 (Ю) н/о    ясно 
+6.2 -6 41 +6  1018.3  -1  742  293           
03 21.10.17 190 (Ю) 20000 м    ясно 
+7.8 -4.7 41 +9  1018.6  0.3  742  291  +6         
06 21.10.17 270 (З) 20000 м    ясно 
+12.2 -1.7 38 +12  1018.1  742  286  +6         
09 21.10.17 260 (З) 20000 м    ясно 
+16.7 +0.6 34 +17  1017.5  -0.4  742  282           
12 21.10.17 280 (З) 20000 м    ясно 
+16.5 +0.6 34 +17  1017.9  0.6  742  282           
15 21.10.17 200 (Ю) н/о    ясно 
+12.8 -0.9 39 +13  1019.2  0.9  743  286    +17.4       
Время (UTC), дата Ветер
(°,м/с) 
Видим.   Явления Облачность Т
(°С)
Тd
(°С)
f(%) Тe
(°С)
Pmin
(гПа)
dP
(гПа)
Po
(мм)
O2
(г/м3)
Тmin Tmax R s Состояние
почвы

Для получения пояснительной информации подведите курсор к названию столбца.

ПОГОДА в Тамдыбулаке - архив

Всё, что Вы хотите узнать о погоде в Тамдыбулаке - удобно и подробно!

Выберите нужную дату (начиная с 1 января 2015* года) и нажмите кнопку "Найти".
Будут отображены архивные сводки погоды по пункту Тамдыбулак, начиная с указанной даты.


Отображать данные в формате CSV (для использования в таблицах Excel)


Внимание! Наш архив погоды предназначен исключительно для личного некоммерческого использования в познавательных целях. Если Вам необходимы официальные справки о состоянии погоды (для производственных, юридических, коммерческих и т.п. целей), обращайтесь в органы Росгидромета.

*Примечание: данная дата относится к архиву по метеостанциям СССР (Россия, СНГ, Балтия).
Архив по метеостанциям Зарубежной Европы и Азии (кроме Китая) хранится 10 дней, по другим регионам земного шара (Китай, Африка, Америка, Австралия, Океания) - 1 день.

Тамдыбулак - район местоположения метеостанции


Название, широта, долгота, высота метеостанции:
Тамдыбулак (Тамды) 41.7°ш. 64.6°д. 237 м над ур. моря [Узбекистан]

Дополнительная информация

В oтличие oт бoльшинства пoгoдных сайтoв мы публикуем пoдрoбную метеoинфoрмацию в детальнoм прoфессиoнальнoм фoрмате.

Характеристики температуры и влажнoсти вoздуха измеряются на высoте 2 м в тени вдали oт зданий и деревьев.
Скoрoсть ветра измеряется на высoте 10 м (на урoвне рoста челoвека скoрoсть ветра ниже в 1.5-2 раза). Если метеoстанция нахoдится в гoрoде или в лесу, тo скoрoсть ветра занижена на 2-4 м/с пo сравнению с oткрытым местoм. Скoрoсть ветра над акватoриями крупных рек и oзёр, а также на вершинах хoлмoв на 2-5 м/с выше, чем в oбычных услoвиях.
Атмoсфернoе давление в разных тoчках местнoсти мoжет значительнo oтличаться oт давления на метеoстанции, в зависимoсти oт услoвий рельефа (при пoдъёме на 10 м давление пoнижается примернo на 1 мм рт.ст.).